Location: *
(2.5500°S, 65.9667°W)
Time: 13:00:11
(UTC+00:00)

H-2A R/B - Pass Details

Date: 01 June 2022
Orbit: 734 x 836 km, 98.2° (Epoch: 30 June)

Event Time Altitude Azimuth Distance (km) Brightness Sun altitude
Rises 22:56:52 0° 187° (S) 3,172 5.0 -9.1°
Reaches altitude 10° 22:59:23 10° 198° (SSW) 2,254 4.4 -9.7°
Maximum altitude 23:03:39 30° 258° (WSW) 1,338 3.9 -10.6°
Drops below altitude 10° 23:07:59 10° 317° (NW) 2,287 5.6 -11.6°
Sets 23:10:33 0° 328° (NNW) 3,226 6.2 -12.2°
